TimeAKDT,TemperatureF,Dew PointF,Humidity,Sea Level PressureIn,VisibilityMPH,Wind Direction,Wind SpeedMPH,Gust SpeedMPH,PrecipitationIn,Events,Conditions,WindDirDegrees,DateUTC
12:53 AM,30.9,19.0,61,29.91,10.0,NNW,5.8,21.9,N/A,,Clear,330,2012-11-02 08:53:00
1:53 AM,30.9,19.0,61,29.88,10.0,NNE,12.7,21.9,N/A,,Overcast,20,2012-11-02 09:53:00
2:53 AM,30.9,18.0,59,29.85,10.0,North,10.4,20.7,N/A,,Overcast,10,2012-11-02 10:53:00
3:53 AM,30.9,18.0,59,29.82,10.0,NNE,10.4,20.7,N/A,,Overcast,20,2012-11-02 11:53:00
4:53 AM,32.0,18.0,56,29.79,10.0,NE,19.6,34.5,N/A,,Overcast,40,2012-11-02 12:53:00
5:53 AM,32.0,18.0,56,29.78,10.0,North,13.8,31.1,N/A,,Overcast,10,2012-11-02 13:53:00
6:53 AM,33.1,19.0,56,29.76,10.0,Variable,4.6,26.5,N/A,,Overcast,0,2012-11-02 14:53:00
7:53 AM,33.1,18.0,54,29.73,10.0,NNE,12.7,33.4,N/A,,Overcast,20,2012-11-02 15:53:00
8:53 AM,33.1,18.0,54,29.71,5.0,North,9.2,40.3,N/A,,Haze,350,2012-11-02 16:53:00
9:53 AM,32.0,19.9,61,29.70,8.0,NNE,12.7,18.4,0.00,Snow,Light Snow,20,2012-11-02 17:53:00
10:53 AM,33.1,21.0,61,29.70,10.0,North,8.1,-,0.00,,Overcast,10,2012-11-02 18:53:00
11:53 AM,34.0,19.9,56,29.69,10.0,NNE,17.3,28.8,N/A,,Overcast,20,2012-11-02 19:53:00
12:12 PM,33.8,21.2,60,29.70,2.5,North,10.4,24.2,0.00,Snow,Light Snow,360,2012-11-02 20:12:00
12:34 PM,33.8,24.8,70,29.69,4.0,Variable,5.8,18.4,0.00,Snow,Light Snow,0,2012-11-02 20:34:00
12:43 PM,33.8,24.8,70,29.69,4.0,Calm,Calm,-,0.00,Snow,Light Snow,0,2012-11-02 20:43:00
12:53 PM,33.1,24.1,70,29.69,9.0,Calm,Calm,-,0.00,,Overcast,0,2012-11-02 20:53:00
1:53 PM,33.1,25.0,72,29.66,10.0,NNE,4.6,-,0.00,,Overcast,20,2012-11-02 21:53:00
2:53 PM,33.1,25.0,72,29.66,4.0,Calm,Calm,-,0.00,Snow,Light Snow,0,2012-11-02 22:53:00
3:04 PM,33.8,26.6,75,29.66,2.5,North,3.5,-,0.00,Snow,Light Snow,10,2012-11-02 23:04:00
3:53 PM,32.0,27.0,82,29.66,1.8,Variable,3.5,-,0.00,Snow,Light Snow,0,2012-11-02 23:53:00
3:59 PM,32.0,26.6,80,29.65,1.2,NNW,3.5,-,0.00,Snow,Light Snow,340,2012-11-02 23:59:00
4:11 PM,32.0,26.6,80,29.65,2.0,Variable,3.5,-,0.00,Snow,Light Snow,0,2012-11-03 00:11:00
4:33 PM,32.0,26.6,80,29.65,1.5,Calm,Calm,-,0.00,Snow,Light Snow,0,2012-11-03 00:33:00
4:39 PM,32.0,26.6,80,29.65,2.0,North,3.5,-,0.00,Snow,Light Snow,350,2012-11-03 00:39:00
4:50 PM,32.0,26.6,80,29.64,4.0,Calm,Calm,-,0.00,Snow,Light Snow,0,2012-11-03 00:50:00
4:53 PM,32.0,27.0,82,29.65,5.0,East,3.5,-,0.00,Snow,Light Snow,80,2012-11-03 00:53:00
5:25 PM,30.2,26.6,86,29.64,2.0,SSE,3.5,-,0.00,Snow,Light Snow,150,2012-11-03 01:25:00
5:38 PM,32.0,28.4,87,29.64,1.8,Calm,Calm,-,0.00,Snow,Light Snow,0,2012-11-03 01:38:00
5:50 PM,30.2,28.4,93,29.64,2.5,Calm,Calm,-,0.00,Snow,Light Snow,0,2012-11-03 01:50:00
5:53 PM,30.9,28.0,89,29.65,2.5,Calm,Calm,-,0.00,Snow,Light Snow,0,2012-11-03 01:53:00
5:59 PM,30.2,28.4,93,29.64,3.0,Calm,Calm,-,0.00,Snow,Light Snow,0,2012-11-03 01:59:00
6:33 PM,30.2,28.4,93,29.65,2.0,Calm,Calm,-,0.01,Snow,Light Snow,0,2012-11-03 02:33:00
6:40 PM,32.0,28.4,87,29.65,3.0,Calm,Calm,-,0.01,Snow,Light Snow,0,2012-11-03 02:40:00
6:53 PM,30.9,28.0,89,29.64,9.0,Calm,Calm,-,0.01,,Overcast,0,2012-11-03 02:53:00
7:53 PM,30.9,28.0,89,29.64,9.0,Calm,Calm,-,0.00,,Overcast,0,2012-11-03 03:53:00
8:53 PM,30.9,28.0,89,29.63,10.0,Calm,Calm,-,N/A,,Overcast,0,2012-11-03 04:53:00
9:53 PM,30.0,27.0,88,29.61,10.0,Calm,Calm,-,N/A,,Overcast,0,2012-11-03 05:53:00
10:53 PM,30.0,27.0,88,29.62,10.0,Calm,Calm,-,N/A,,Overcast,0,2012-11-03 06:53:00
11:53 PM,30.9,27.0,85,29.61,10.0,Calm,Calm,-,N/A,,Overcast,0,2012-11-03 07:53:00